Change the Weather History Date:

Sunday, February 12, 2012

  Actual Average Record
Temperature  
Mean Temperature 20 °F 34 °F  
Max Temperature 32 °F 45 °F 55 °F (2003)
Min Temperature 8 °F 23 °F 8 °F (2004)
Degree Days  
Heating Degree Days 45 31  
Month to date heating degree days 353 383  
Since 1 July heating degree days 2929 3371  
Cooling Degree Days 0 0  
Month to date cooling degree days 0 0  
Year to date cooling degree days 0 0  
Moisture  
Dew Point 9 °F    
Average Humidity 57    
Maximum Humidity 83    
Minimum Humidity 31    
Precipitation  
Precipitation T in 0.04 in 0.35 in (2005)
Month to date precipitation 1.64 0.54  
Year to date precipitation 1.64 1.17  
Sea Level Pressure  
Sea Level Pressure 30.41 in    
Wind  
Wind Speed 11 mph (South)    
Max Wind Speed 25 mph    
Max Gust Speed 32 mph    
Visibility 8 miles    
Events Snow    
T = Trace of Precipitation, MM = Missing Value Source: NWS Daily Summary

Daily Weather History Graph

Daily Weather History Graph

Search for Another Location

Airport or City:

Trip Planner

Search our weather history database for the weather conditions in past years. The results will help you decide how hot, cold, wet, or windy it might be!

Date:

Astronomy

Feb. 12, 2012 Rise Set
Actual Time 7:19 AM CST 5:59 PM CST
Civil Twilight 6:52 AM CST 6:26 PM CST
Nautical Twilight 6:20 AM CST 6:57 PM CST
Astronomical Twilight 5:50 AM CST 7:28 PM CST
Moon 11:52 PM CST (2/12) 9:44 AM CST (2/12)
Length of Visible Light 11h 34m
Length of Day
10h 40m
Waning Gibbous, 72% of the Moon is Illuminated
Feb 12
Waning Gibbous
Feb 14
Last Quarter
Feb 21
New
Feb 29
First Quarter
Mar 8
Full

Hourly Weather History & Observations

Time (CST) Temp. Windchill Dew Point Humidity Pressure Visibility Wind Dir Wind Speed Gust Speed Precip Events Conditions
12:53 AM 12.9 °F - 6.1 °F 74% 30.70 in 10.0 mi Calm Calm - N/A   Clear
1:53 AM 12.0 °F 4.1 °F 5.0 °F 73% 30.71 in 10.0 mi WNW 4.6 mph - N/A   Clear
2:53 AM 12.0 °F - 5.0 °F 73% 30.71 in 10.0 mi Calm Calm - N/A   Clear
3:53 AM 12.9 °F - 3.9 °F 67% 30.67 in 10.0 mi Calm Calm - N/A   Clear
4:53 AM 10.9 °F - 5.0 °F 77% 30.65 in 10.0 mi Calm Calm - N/A   Clear
5:53 AM 8.1 °F -0.5 °F 5.0 °F 87% 30.65 in 10.0 mi SE 4.6 mph - N/A   Clear
6:53 AM 10.0 °F 0.4 °F 5.0 °F 80% 30.62 in 10.0 mi SE 5.8 mph - N/A   Clear
7:53 AM 12.9 °F 5.2 °F 6.1 °F 74% 30.61 in 10.0 mi SE 4.6 mph - N/A   Clear
8:53 AM 18.0 °F 8.7 °F 9.0 °F 68% 30.61 in 10.0 mi SSE 6.9 mph - N/A   Clear
9:53 AM 23.0 °F 11.7 °F 9.0 °F 55% 30.59 in 10.0 mi South 11.5 mph - N/A   Clear
10:53 AM 27.0 °F 17.3 °F 7.0 °F 43% 30.56 in 10.0 mi SSE 10.4 mph - N/A   Clear
11:53 AM 30.0 °F 18.7 °F 5.0 °F 35% 30.53 in 10.0 mi South 16.1 mph - N/A   Clear
12:53 PM 30.9 °F 20.2 °F 3.9 °F 32% 30.48 in 10.0 mi South 15.0 mph - N/A   Mostly Cloudy
1:53 PM 30.9 °F 20.2 °F 5.0 °F 33% 30.43 in 10.0 mi South 15.0 mph - N/A   Overcast
2:53 PM 30.0 °F 19.1 °F 6.1 °F 36% 30.40 in 10.0 mi South 15.0 mph - N/A   Overcast
3:53 PM 30.0 °F 19.5 °F 5.0 °F 35% 30.37 in 10.0 mi South 13.8 mph - N/A   Overcast
4:53 PM 30.0 °F 19.1 °F 7.0 °F 38% 30.34 in 10.0 mi South 15.0 mph - N/A   Overcast
5:53 PM 30.0 °F 19.5 °F 8.1 °F 40% 30.31 in 10.0 mi SSE 13.8 mph - N/A   Overcast
6:53 PM 30.0 °F 19.1 °F 9.0 °F 41% 30.28 in 10.0 mi SSE 15.0 mph - N/A   Overcast
7:53 PM 30.0 °F 18.3 °F 8.1 °F 40% 30.25 in 10.0 mi SSE 17.3 mph - N/A   Overcast
8:53 PM 30.0 °F 18.7 °F 8.1 °F 40% 30.22 in 10.0 mi SSE 16.1 mph 24.2 mph N/A   Overcast
9:53 PM 30.9 °F 19.4 °F 7.0 °F 37% 30.19 in 10.0 mi South 17.3 mph - N/A   Overcast
10:53 PM 30.9 °F 18.4 °F 9.0 °F 40% 30.16 in 10.0 mi South 20.7 mph 28.8 mph N/A   Overcast
11:19 PM 26.6 °F 12.7 °F 21.2 °F 80% 30.11 in 1.5 mi South 20.7 mph 28.8 mph 0.00 in Snow Light Snow
11:22 PM 26.6 °F 13.4 °F 21.2 °F 80% 30.10 in 1.0 mi South 18.4 mph 27.6 mph 0.00 in Snow Light Snow
11:27 PM 26.6 °F 13.8 °F 21.2 °F 80% 30.10 in 0.8 mi South 17.3 mph 27.6 mph 0.00 in Snow Light Snow
11:35 PM 26.6 °F 13.8 °F 21.2 °F 80% 30.09 in 1.2 mi South 17.3 mph 25.3 mph N/A Snow Light Snow
11:53 PM 26.1 °F 13.1 °F 23.0 °F 88% 30.13 in 1.0 mi South 17.3 mph 23.0 mph 0.00 in Snow Light Snow